[[{"header":{"parameterUnit":"m.s-1","parameterCategory":1,"la1":30.2991,"la2":30.254,"lo1":-89.0895,"lo2":-89.0444,"dy":0.0017,"dx":0.0017,"nx":28,"ny":28,"refTime":"2025-05-26T03:00:00:Z","depth":0,"parameterNumber":2,"parameterNumberName":"U-component_of_WINDS"},"data":[0,0,0,0,0,0,0,0,0,0,0,0,0,0,0,0,0,0,0,0,0,0,0,0,0,0,0,0,0,0,0,0,0,0,0,0,0,0,0,0,0,0,0,0,0,0,0,0,0,0,0,0,0,0,0,0,0,0,-2.0689,-2.0689,0,-2.0693,-2.0693,-2.0693,-2.0649,-2.0647,-2.0646,-2.0645,-2.065,-2.0651,-2.0653,0,0,0,0,0,0,0,0,0,0,0,0,0,-2.0646,-2.0647,-2.0689,-2.0689,-2.0689,-2.0693,-2.0693,-2.0693,-2.0649,-2.0647,-2.0646,-2.0645,-2.065,-2.0651,-2.0653,0,0,0,0,0,0,0,0,0,0,0,0,0,-2.0659,-2.0648,-2.0689,-2.0668,-2.0666,-2.0693,-2.0693,-2.0693,-2.0649,-2.0647,-2.0646,-2.0644,-2.0649,-2.0651,-2.0653,-2.0701,0,0,-2.0659,-2.066,0,0,0,0,0,0,0,0,-2.0658,-2.0661,-2.0671,-2.0669,-2.0667,-2.0668,-2.068,-2.0696,-2.065,-2.0656,-2.0645,-2.0643,-2.0658,-2.0659,-2.0664,-2.0701,-2.0702,-2.0659,-2.066,-2.0661,-2.0661,0,0,0,0,0,0,0,-2.0658,-2.066,-2.0691,-2.0671,-2.0669,-2.0659,-2.0658,-2.0682,-2.0667,-2.0655,-2.0652,-2.0653,-2.0656,-2.0662,-2.0663,-2.0702,-2.0659,-2.0661,-2.0662,-2.0663,-2.078,-2.0782,0,0,0,0,0,0,-2.0659,-2.066,-2.0691,-2.0691,-2.0658,-2.0661,-2.0661,-2.067,-2.0667,-2.0664,-2.0654,-2.0651,-2.066,-2.0661,-2.0663,-2.072,-2.0661,-2.0663,-2.0664,-2.0778,-2.078,-2.0783,0,0,0,0,0,0,-2.0659,-2.0662,-2.069,-2.0674,-2.0677,-2.0664,-2.0674,-2.0671,-2.0676,-2.0666,-2.0663,-2.0662,-2.0658,-2.0661,-2.0692,-2.0719,-2.0664,-2.0665,-2.0776,-2.0779,-2.0781,-2.0833,0,0,0,0,0,0,-2.0658,-2.0662,-2.068,-2.0675,-2.0678,-2.0719,-2.0676,-2.0672,-2.0679,-2.0675,-2.0673,-2.0671,-2.0657,-2.069,-2.0694,-2.0721,-2.0667,-2.0773,-2.0777,-2.0781,-2.0829,-2.0837,-2.0845,0,0,0,0,0,-2.0656,-2.0695,-2.0681,-2.0685,-2.07,-2.072,-2.0722,-2.0705,-2.0682,-2.07,-2.0693,-2.0671,-2.0716,-2.0693,-2.0698,-2.0726,-2.0771,-2.0776,-2.078,-2.0825,-2.0836,-2.0845,0,0,0,0,0,0,-2.0703,-2.0694,-2.0679,-2.0716,-2.072,-2.0713,-2.0735,-2.0716,-2.0726,-2.0722,-2.07,-2.07,-2.0735,-2.0734,-2.0709,-2.0773,-2.074,-2.0745,-2.0772,-2.0782,-2.079,-2.0789,-2.0668,0,0,0,0,0,-2.0718,-2.0735,-2.0726,-2.076,-2.0762,-2.0749,-2.0757,-2.0743,-2.0746,-2.0747,-2.0743,-2.0747,-2.0761,-2.0772,-2.0785,-2.0829,-2.0828,-2.085,-2.0858,-2.0865,-2.087,-2.0893,-2.0903,-2.0797,-2.0797,-2.0797,0,0,-2.0749,-2.0746,-2.0758,-2.077,-2.077,-2.0789,-2.075,-2.0771,-2.0785,-2.075,-2.0779,-2.0777,-2.078,-2.0818,-2.0834,-2.0817,-2.0899,-2.087,-2.0876,-2.0877,-2.0899,-2.0909,-2.0918,-2.08,-2.08,-2.0799,0,0,-2.0815,-2.0814,-2.0842,-2.0844,-2.0846,-2.0836,-2.0843,-2.084,-2.0836,-2.0865,-2.084,-2.0857,-2.0883,-2.0886,-2.0891,-2.0959,-2.0939,-2.0964,-2.1005,-2.1028,-2.1037,-2.1044,-2.1069,-2.1078,-2.0969,-2.0969,-2.0969,0,-2.0853,-2.0879,-2.086,-2.0883,-2.0889,-2.0858,-2.0888,-2.0891,-2.0897,-2.0902,-2.0883,-2.0916,-2.0915,-2.0954,-2.0971,-2.0976,-2.0983,-2.0964,-2.1037,-2.1044,-2.1051,-2.1074,-2.1083,-2.0972,-2.0972,-2.0971,-2.0971,0,-2.0926,-2.0945,-2.0968,-2.0975,-2.0984,-2.101,-2.0995,-2.1006,-2.0993,-2.0985,-2.1016,-2.1015,-2.1027,-2.1035,-2.1022,-2.1073,-2.1062,-2.1041,-2.1007,-2.1064,-2.1086,-2.1094,-2.0976,-2.0975,-2.0974,-2.0974,0,0,-2.1021,-2.1017,-2.1026,-2.1028,-2.1028,-2.1043,-2.1068,-2.108,-2.1091,-2.1096,-2.1117,-2.114,-2.112,-2.1126,-2.1113,-2.1134,-2.1188,-2.111,-2.1109,-2.1124,-2.1244,-2.126,-2.1271,-2.1175,-2.1177,-2.1178,-2.1244,0,-2.1085,-2.1127,-2.1111,-2.1155,-2.1172,-2.1144,-2.1166,-2.1169,-2.1163,-2.1177,-2.1171,-2.1188,-2.1161,-2.1164,-2.1183,-2.1177,-2.1212,-2.1172,-2.1195,-2.1196,-2.1195,-2.1282,-2.1299,-2.1361,-2.1252,-2.1253,-2.1254,0,-2.1165,-2.1174,-2.1219,-2.1217,-2.1223,-2.1243,-2.1253,-2.1267,-2.127,-2.1265,-2.1272,-2.1254,-2.128,-2.1247,-2.1281,-2.1255,-2.1263,-2.1262,-2.1264,-2.1265,-2.1228,-2.1286,-2.138,-2.139,-2.1267,-2.1266,-2.1265,0,-2.1231,-2.1254,-2.1284,-2.1287,-2.1284,-2.1299,-2.1299,-2.13,-2.1309,-2.1318,-2.1323,-2.1335,-2.1342,-2.1352,-2.1339,-2.1316,-2.1376,-2.1341,-2.1372,-2.1373,-2.1386,-2.1385,-2.1484,-2.1392,-2.1391,-2.1391,-2.1391,0,-2.1304,-2.1333,-2.1313,-2.1331,-2.1363,-2.1345,-2.1377,-2.1374,-2.1375,-2.1393,-2.137,-2.1387,-2.1368,-2.1384,-2.1374,-2.1405,-2.1408,-2.1405,-2.1402,-2.1407,-2.1408,-2.1412,-2.1407,-2.1394,-2.1393,-2.1393,-2.1392,0,-2.1382,-2.137,-2.1401,-2.1396,-2.1395,-2.1419,-2.1415,-2.1433,-2.1426,-2.1449,-2.1453,-2.1442,-2.146,-2.1448,-2.1465,-2.1459,-2.1499,-2.149,-2.1498,-2.1495,-2.1527,-2.1525,-2.1632,-2.1645,-2.1545,-2.1546,-2.1546,0,-2.143,-2.1451,-2.1449,-2.1459,-2.146,-2.1477,-2.1485,-2.1468,-2.1478,-2.1483,-2.15,-2.1516,-2.1527,-2.1557,-2.1551,-2.1565,-2.1556,-2.1593,-2.1558,-2.1562,-2.1557,-2.1556,-2.1558,-2.16,-2.1601,-2.1602,-2.1603,0,-2.1516,-2.1509,-2.1521,-2.1532,-2.1543,-2.1551,-2.1557,-2.1567,-2.1549,-2.1562,-2.158,-2.1589,-2.1607,-2.1623,-2.1634,-2.1635,-2.1616,-2.1614,-2.1621,-2.1627,-2.1631,-2.1629,-2.1517,-2.1611,-2.161,-2.161,-2.1609,-2.1609,-2.158,-2.1598,-2.1599,-2.1614,-2.1617,-2.1624,-2.164,-2.1635,-2.1649,-2.1662,-2.1651,-2.1672,-2.1675,-2.1688,-2.1691,-2.1708,-2.1693,-2.1705,-2.1708,-2.1711,-2.1715,-2.1628,-2.171,-2.171,-2.171,-2.1709,-2.1709,0,-2.1665,-2.1665,-2.1679,-2.1688,-2.17,-2.1681,-2.1687,-2.1699,-2.1717,-2.1721,-2.1733,-2.1754,-2.1769,-2.1765,-2.1779,-2.1793,-2.1785,-2.1798,-2.1796,-2.1797,-2.1728,-2.1719,-2.1804,-2.1804,-2.1804,-2.1804,-2.1804,-2.1804,-2.1711,-2.1741,-2.1734,-2.1765,-2.1764,-2.1784,-2.1789,-2.1795,-2.1798,-2.1822,-2.1835,-2.1831,-2.1832,-2.1846,-2.186,-2.1858,-2.1865,-2.188,-2.1876,-2.1811,-2.1802,-2.1793,-2.1785,-2.1882,-2.1882,-2.1943,-2.1944,-2.1944]},{"header":{"parameterUnit":"m.s-1","parameterCategory":1,"la1":30.2991,"la2":30.254,"lo1":-89.0895,"lo2":-89.0444,"dy":0.0017,"dx":0.0017,"nx":28,"ny":28,"refTime":"2025-05-26T03:00:00:Z","depth":0,"parameterNumber":3,"parameterNumberName":"V-component_of_WINDS"},"data":[0,0,0,0,0,0,0,0,0,0,0,0,0,0,0,0,0,0,0,0,0,0,0,0,0,0,0,0,0,0,0,0,0,0,0,0,0,0,0,0,0,0,0,0,0,0,0,0,0,0,0,0,0,0,0,0,0,0,5.3275,5.3276,0,5.3376,5.3377,5.3379,5.3357,5.3355,5.3353,5.3351,5.3451,5.3456,5.346,0,0,0,0,0,0,0,0,0,0,0,0,0,5.3059,5.3063,5.3275,5.3276,5.3277,5.3376,5.3377,5.3379,5.3357,5.3355,5.3352,5.335,5.345,5.3455,5.346,0,0,0,0,0,0,0,0,0,0,0,0,0,5.3156,5.3065,5.3274,5.3278,5.328,5.3376,5.3378,5.3379,5.3357,5.3355,5.3352,5.3349,5.3448,5.3455,5.3461,5.3559,0,0,5.3481,5.3484,0,0,0,0,0,0,0,0,5.315,5.3164,5.3276,5.3278,5.328,5.3351,5.3338,5.3439,5.3358,5.3328,5.3351,5.3348,5.342,5.3429,5.3454,5.3563,5.3568,5.3482,5.3486,5.3489,5.3491,0,0,0,0,0,0,0,5.3144,5.3159,5.3315,5.3278,5.328,5.3274,5.3285,5.3357,5.3388,5.333,5.3329,5.3341,5.342,5.3448,5.3456,5.3569,5.3482,5.3488,5.3492,5.3494,5.3766,5.3769,0,0,0,0,0,0,5.3136,5.3154,5.3311,5.3318,5.3207,5.328,5.3292,5.3331,5.3388,5.3394,5.3344,5.334,5.3438,5.3448,5.346,5.3579,5.3489,5.3495,5.3499,5.3763,5.3767,5.377,0,0,0,0,0,0,5.3131,5.315,5.3307,5.3236,5.3255,5.3287,5.3331,5.3334,5.3362,5.3398,5.3403,5.3366,5.3436,5.345,5.3535,5.3582,5.3498,5.3504,5.3759,5.3764,5.3768,5.3818,0,0,0,0,0,0,5.3125,5.3149,5.3186,5.3237,5.3259,5.3382,5.3334,5.3338,5.3374,5.337,5.342,5.3426,5.3435,5.3525,5.3542,5.359,5.3509,5.3755,5.3761,5.3767,5.3812,5.3824,5.3834,0,0,0,0,0,5.3118,5.3195,5.3189,5.3208,5.3307,5.3385,5.3397,5.3407,5.3377,5.3416,5.3439,5.3424,5.3574,5.3534,5.3552,5.3603,5.3752,5.3759,5.3766,5.3807,5.3822,5.3834,0,0,0,0,0,0,5.3148,5.3202,5.3195,5.3291,5.3334,5.3381,5.3429,5.3422,5.3473,5.3467,5.3476,5.3487,5.3574,5.3597,5.3551,5.3702,5.3659,5.367,5.3684,5.3697,5.3708,5.3701,5.3515,0,0,0,0,0,5.3166,5.3226,5.3269,5.3349,5.3371,5.3397,5.3431,5.3435,5.3479,5.3496,5.3526,5.3568,5.3625,5.3662,5.3717,5.3815,5.3827,5.3859,5.387,5.3879,5.3889,5.3944,5.396,5.3794,5.3794,5.3794,0,0,5.3203,5.324,5.3277,5.3357,5.339,5.3451,5.3412,5.3477,5.3523,5.3506,5.3589,5.3612,5.366,5.3753,5.3795,5.3774,5.3937,5.3888,5.3895,5.39,5.3953,5.3969,5.3983,5.3799,5.3798,5.3797,0,0,5.3303,5.3337,5.3409,5.3444,5.3496,5.3513,5.353,5.3579,5.3594,5.3678,5.3667,5.372,5.3818,5.3853,5.3884,5.4,5.3988,5.4017,5.4073,5.4127,5.414,5.4152,5.4195,5.421,5.4026,5.4026,5.4026,0,5.3343,5.3436,5.3446,5.3514,5.355,5.3539,5.3612,5.3645,5.3712,5.3736,5.3713,5.3836,5.3867,5.3969,5.3998,5.4023,5.4043,5.4011,5.4138,5.415,5.4161,5.4201,5.4217,5.403,5.4029,5.4029,5.4029,0,5.3483,5.3547,5.3599,5.3666,5.3707,5.3777,5.3798,5.3838,5.3839,5.3858,5.3944,5.3982,5.4044,5.4069,5.4069,5.4171,5.4157,5.4136,5.4093,5.418,5.4218,5.4234,5.4034,5.4033,5.4032,5.4031,0,0,5.3604,5.3677,5.3696,5.3727,5.3785,5.3834,5.3904,5.3967,5.4002,5.4048,5.4107,5.4191,5.4173,5.4207,5.4212,5.4259,5.435,5.4232,5.4234,5.4254,5.4467,5.4483,5.4501,5.4343,5.4346,5.4348,5.4463,0,5.371,5.3835,5.3847,5.3958,5.4018,5.401,5.4071,5.4112,5.4132,5.4186,5.4207,5.4267,5.4237,5.4259,5.4305,5.433,5.4393,5.4321,5.4398,5.4401,5.4387,5.4521,5.4538,5.4644,5.4478,5.448,5.4482,0,5.3851,5.3904,5.4022,5.4073,5.4098,5.4153,5.4212,5.4263,5.4311,5.4322,5.4362,5.4361,5.4433,5.4387,5.4486,5.4437,5.4469,5.4486,5.4491,5.4499,5.4447,5.4533,5.4678,5.4695,5.4506,5.4504,5.4502,0,5.3929,5.403,5.4114,5.414,5.4201,5.424,5.4267,5.4312,5.4349,5.4401,5.4426,5.4484,5.4517,5.4562,5.4577,5.4542,5.4676,5.4631,5.4688,5.4688,5.4717,5.4715,5.487,5.4736,5.4736,5.4735,5.4735,0,5.4047,5.412,5.415,5.4202,5.4283,5.4296,5.4376,5.4401,5.4441,5.4498,5.4493,5.4546,5.4562,5.4617,5.4629,5.471,5.4724,5.4736,5.4738,5.4737,5.4736,5.4758,5.4752,5.4739,5.4739,5.4738,5.4737,0,5.4149,5.4172,5.4263,5.4314,5.4329,5.4387,5.443,5.448,5.45,5.4571,5.4588,5.4619,5.4685,5.4704,5.4782,5.479,5.4885,5.488,5.487,5.4871,5.4926,5.4921,5.5102,5.5127,5.4976,5.4977,5.4978,0,5.4223,5.4279,5.4337,5.4375,5.4405,5.4466,5.4505,5.452,5.4561,5.462,5.4663,5.4728,5.4781,5.4885,5.4914,5.4974,5.4971,5.5031,5.498,5.4978,5.4974,5.4971,5.4977,5.504,5.5042,5.5043,5.5044,0,5.4353,5.4362,5.4419,5.4481,5.4529,5.4578,5.4625,5.4656,5.4678,5.4724,5.4792,5.4833,5.4914,5.4979,5.504,5.5067,5.506,5.506,5.5076,5.5076,5.5068,5.5075,5.4897,5.5056,5.5055,5.5054,5.5053,5.5053,5.4444,5.4494,5.4544,5.4608,5.4645,5.469,5.474,5.4767,5.4824,5.4892,5.4897,5.4971,5.5018,5.51,5.513,5.5188,5.517,5.5194,5.52,5.5206,5.5211,5.5059,5.5199,5.5198,5.5198,5.5198,5.5198,0,5.4575,5.4607,5.4666,5.4733,5.4784,5.4774,5.4826,5.4869,5.4934,5.4979,5.5032,5.5111,5.5174,5.5209,5.5272,5.5311,5.531,5.5327,5.5325,5.5332,5.5222,5.5203,5.5328,5.5328,5.5328,5.5328,5.5328,5.5327,5.4649,5.4734,5.475,5.4854,5.4884,5.4958,5.4989,5.503,5.5066,5.5155,5.5208,5.523,5.5272,5.5338,5.5396,5.5404,5.5428,5.5448,5.5455,5.5352,5.5339,5.5326,5.5308,5.5453,5.5453,5.5559,5.556,5.5561]}]]